Location: Brede
(50.9167°N, 0.6000°E)
Time: 02:28:22
(UTC+00:00)

Cosmos 1626 Rocket - Pass Details

Date: 08 August 2020
Orbit: 603 x 631 km, 82.5° (Epoch: 19 September)

Event Time Altitude Azimuth Distance (km) Brightness Sun altitude
Rises 03:23:33 0° 345° (NNW) 2,879 7.4 -10.1°
Reaches altitude 10° 03:25:51 10° 339° (NNW) 1,967 6.4 -9.8°
Maximum altitude 03:30:00 46° 267° (W) 814 3.8 -9.3°
Drops below altitude 10° 03:34:07 10° 193° (SSW) 1,945 5.6 -8.8°
Enters shadow 03:35:31 - 189° (S) 2,498 6.2 -8.6°
